NOAA 16 DEB, 42334

Orbit data source: Space-Track

NOAA 16 DEB, 42334 is space debris in SSO originally from a launch on Thu, 21 Sep 2000 UTC launched from the Air Force Western Test Range (AFWTR). Debris objects in space refer to the collection of defunct objects orbiting the Earth. Examples of debris include non-operational satellites, rocket bodies, and fragments generated from explosions, collisions, or faulty payload assembly.

Loading next visibility...
Identifier
42334, 2000-055QA
Orbit
SSO
Country
Flag of USUS
Related business
Manufacturer
Unknown
Mission
Spacecraft
Bus & Motor
Unknown
Mass
Unknown
Launch date (UTC)
2000-09-21 (25 years ago)
Launch vehicle
Unknown
Launch site
Air Force Western Test Range (AFWTR)
Object type
Payload
Rocket body
Debris
Shape & HBR
Unknown shape, 0.1 m
Radar Cross Section
Small (<0.1 m²)

Expand to show TLE details & history
Last TLE update: 10 hours ago

TLE from 10 hours ago
0 NOAA 16 DEB
1 42334U 00055QA  25293.57771590  .00011184  00000-0  38511-2 0  9993
2 42334  98.8392  51.0113 0014576 184.7809 175.3240 14.36043963477412
Epoch: 2025-10-20T13:51Z
TLE epoch observation values (Epoch: 2025-10-20T13:51:54.653Z)
Latitude
0.00006°
Longitude
173.75554°
Altitude
784.92 km
Speed
7.456 km/s
True Right ascension
03h 24m 02s
True Declination
0° 00' 00"
Sunlit
Object was in full shadow at epoch
Visualization orbit readout
Latitude
Unknown
Longitude
Unknown
Altitude
Unknown
Speed
Unknown
Apparent Right ascension
Unknown
Apparent Declination
Unknown
Sunlit
N/A
Visualization observer readout
Local Sidereal Time
18:27:56
Azimuth
Unknown
Elevation
Unknown
Doppler factor
Unknown
Orbital elements
Apogee altitude
779.16 km
Perigee altitude
758.325 km
Semi-major axis
7,146.88 km
Eccentricity
0.00146
Inclination
98.8392°
RAAN
51.0113°
Arg. of periapsis
184.7809°
True anomaly
175.33759°
Mean anomaly
175.324°
Eccentric anomaly
175.3308°
Mean motion
3.59227 °/min
Orbital period
100.22 mins
BSTAR
0.0038511
Loading maneuver chart data...
Computing Atmospheric mass density...
Loading historical data...
Loading historical data...
Loading historical data...
Loading historical data...
Loading historical data...
Loading historical data...
Loading historical data...

Documentation

Showing up to 5 results
|